EWG5LP EDDL-LEPA

Flight info

Callsign EWG5LP
Flight time 2h 20m
Altitude 24000
Route MODRU7Z/05R MODRU Z283 LNO Z283 RITAX UT27 ROUSY DCT GTQ DCT POGOL DCT LASAT DCT MOROK DCT GILIR DCT GEVEA DCT INCUS DCT BALSI DCT RETNO DCT TUPOX DCT MTG DCT DIVKO DCT VATIR N852 VERSO L129 LUNIK
Aircraft A20N/M-SDE2E3FGHIRWXY/LB1

Departure

Time 2026-05-06 09:04
Airport Düsseldorf Airport (EDDL)

Arrival

Time 2026-05-06 11:25
Airport Palma de Mallorca Airport (LEPA)
Time Latitude Longitude Altitude Speed Heading
2026-05-06 08:34 51.27661 6.75606 137 ft 0 kts 64°
2026-05-06 08:55 51.27659 6.75601 137 ft 1 kts 64°
2026-05-06 08:56 51.27656 6.75590 137 ft 1 kts 64°
2026-05-06 08:56 51.27652 6.75579 137 ft 1 kts 64°
2026-05-06 08:56 51.27649 6.75568 137 ft 1 kts 64°
2026-05-06 08:56 51.27645 6.75557 137 ft 1 kts 64°
2026-05-06 08:57 51.27642 6.75545 137 ft 1 kts 56°
2026-05-06 08:57 51.27637 6.75535 137 ft 1 kts 41°
2026-05-06 08:57 51.27631 6.75527 137 ft 1 kts 23°
2026-05-06 08:57 51.27624 6.75523 137 ft 1 kts 353°
2026-05-06 08:58 51.27620 6.75524 137 ft 0 kts 336°
2026-05-06 09:00 51.27631 6.75516 137 ft 5 kts 336°
2026-05-06 09:00 51.27686 6.75474 137 ft 11 kts 334°
2026-05-06 09:01 51.27754 6.75418 136 ft 11 kts 332°
2026-05-06 09:01 51.27823 6.75362 136 ft 11 kts 334°
2026-05-06 09:01 51.27880 6.75319 135 ft 6 kts 334°
2026-05-06 09:01 51.27884 6.75316 135 ft 0 kts 334°
2026-05-06 09:02 51.27950 6.75264 128 ft 14 kts 334°
2026-05-06 09:03 51.27988 6.75247 129 ft 1 kts 25°
2026-05-06 09:03 51.27994 6.75265 125 ft 5 kts 58°
2026-05-06 09:03 51.28024 6.75336 129 ft 15 kts 53°
2026-05-06 09:03 51.28232 6.75748 133 ft 85 kts 50°
2026-05-06 09:04 51.28721 6.76784 140 ft 145 kts 52°
2026-05-06 09:04 51.29354 6.78127 722 ft 151 kts 51°
2026-05-06 09:04 51.29988 6.79454 1473 ft 152 kts 53°
2026-05-06 09:04 51.30617 6.80805 2240 ft 150 kts 53°
2026-05-06 09:05 51.31246 6.82151 2922 ft 157 kts 53°
2026-05-06 09:05 51.31946 6.83642 3347 ft 178 kts 53°
2026-05-06 09:05 51.32736 6.85313 3787 ft 197 kts 53°
2026-05-06 09:05 51.33585 6.87135 4137 ft 222 kts 53°
2026-05-06 09:06 51.34620 6.89264 4665 ft 242 kts 43°
2026-05-06 09:06 51.36046 6.90664 5467 ft 247 kts 18°
2026-05-06 09:06 51.37747 6.91199 6336 ft 252 kts
2026-05-06 09:06 51.39499 6.91647 7100 ft 259 kts
2026-05-06 09:07 51.41299 6.92114 7840 ft 266 kts
2026-05-06 09:07 51.43200 6.92614 8321 ft 287 kts
2026-05-06 09:07 51.45198 6.93144 9199 ft 294 kts
2026-05-06 09:07 51.47242 6.93458 10075 ft 298 kts 354°
2026-05-06 09:08 51.49286 6.92580 10476 ft 317 kts 331°
2026-05-06 09:08 51.51062 6.90336 10794 ft 335 kts 307°
2026-05-06 09:08 51.52185 6.87050 11445 ft 339 kts 288°
2026-05-06 09:08 51.52840 6.83499 12259 ft 341 kts 283°
2026-05-06 09:09 51.53480 6.79731 13177 ft 345 kts 284°
2026-05-06 09:09 51.54197 6.76008 13994 ft 350 kts 287°
2026-05-06 09:09 51.54997 6.72298 14798 ft 355 kts 288°
2026-05-06 09:09 51.55532 6.68419 15576 ft 357 kts 271°
2026-05-06 09:10 51.55249 6.64455 16320 ft 360 kts 252°
2026-05-06 09:10 51.54221 6.60771 17063 ft 364 kts 242°
2026-05-06 09:10 51.53043 6.57143 17821 ft 368 kts 242°
2026-05-06 09:10 51.51843 6.53467 18537 ft 372 kts 242°
2026-05-06 09:11 51.50636 6.49763 19192 ft 378 kts 242°
2026-05-06 09:11 51.49415 6.46004 19859 ft 383 kts 242°
2026-05-06 09:11 51.48177 6.42191 20494 ft 386 kts 242°
2026-05-06 09:11 51.46867 6.38437 21089 ft 390 kts 234°
2026-05-06 09:12 51.45019 6.35230 21637 ft 394 kts 218°
2026-05-06 09:12 51.42672 6.32957 22194 ft 397 kts 202°
2026-05-06 09:12 51.40072 6.31401 22753 ft 401 kts 199°
2026-05-06 09:12 51.37441 6.29867 23324 ft 404 kts 199°
2026-05-06 09:13 51.34819 6.28336 23674 ft 408 kts 199°
2026-05-06 09:13 51.32146 6.26770 23785 ft 409 kts 199°
2026-05-06 09:13 51.29480 6.25205 23805 ft 409 kts 200°
2026-05-06 09:13 51.26800 6.23633 23806 ft 409 kts 200°
2026-05-06 09:14 51.24124 6.22064 23807 ft 409 kts 200°
2026-05-06 09:14 51.21453 6.20500 23805 ft 409 kts 200°
2026-05-06 09:14 51.18772 6.18932 23833 ft 412 kts 200°
2026-05-06 09:14 51.16073 6.17354 24291 ft 413 kts 199°
2026-05-06 09:15 51.13373 6.15777 24888 ft 414 kts 199°
2026-05-06 09:15 51.10660 6.14194 25370 ft 417 kts 199°
2026-05-06 09:15 51.07931 6.12604 25862 ft 419 kts 199°
2026-05-06 09:15 51.05172 6.11000 26347 ft 422 kts 199°
2026-05-06 09:16 51.02427 6.09308 26800 ft 426 kts 203°
2026-05-06 09:16 50.99790 6.07119 27223 ft 429 kts 210°
2026-05-06 09:16 50.97257 6.04586 27671 ft 432 kts 211°
2026-05-06 09:16 50.94704 6.02034 28082 ft 435 kts 210°
2026-05-06 09:17 50.92065 5.99698 28471 ft 437 kts 207°
2026-05-06 09:17 50.89364 5.97410 28859 ft 439 kts 207°
2026-05-06 09:17 50.86659 5.95121 29206 ft 442 kts 207°
2026-05-06 09:17 50.83970 5.92848 29549 ft 445 kts 207°
2026-05-06 09:18 50.81238 5.90533 29899 ft 447 kts 207°
2026-05-06 09:18 50.78494 5.88175 30225 ft 449 kts 207°
2026-05-06 09:18 50.75712 5.85771 30605 ft 451 kts 207°
2026-05-06 09:18 50.72994 5.83419 30961 ft 452 kts 207°
2026-05-06 09:19 50.70242 5.81041 31425 ft 450 kts 208°
2026-05-06 09:19 50.67511 5.78686 31970 ft 446 kts 208°
2026-05-06 09:19 50.64783 5.76340 32491 ft 445 kts 208°
2026-05-06 09:19 50.62018 5.74242 32991 ft 442 kts 201°
2026-05-06 09:20 50.59085 5.72812 33444 ft 440 kts 193°
2026-05-06 09:20 50.56063 5.72096 33883 ft 438 kts 184°
2026-05-06 09:20 50.53013 5.72091 34213 ft 438 kts 176°
2026-05-06 09:20 50.49991 5.72651 34500 ft 438 kts 174°
2026-05-06 09:21 50.46970 5.73253 34794 ft 438 kts 174°
2026-05-06 09:21 50.43938 5.73843 35093 ft 437 kts 174°
2026-05-06 09:21 50.40926 5.74421 35384 ft 437 kts 174°
2026-05-06 09:21 50.37900 5.74998 35651 ft 437 kts 174°
2026-05-06 09:22 50.34879 5.75572 35933 ft 437 kts 174°
2026-05-06 09:22 50.31863 5.76146 36196 ft 437 kts 174°
2026-05-06 09:22 50.28848 5.76718 36439 ft 436 kts 174°
2026-05-06 09:22 50.25834 5.77290 36664 ft 436 kts 174°
2026-05-06 09:23 50.22819 5.77861 36884 ft 436 kts 174°
2026-05-06 09:23 50.19805 5.78432 37096 ft 436 kts 174°
2026-05-06 09:23 50.16790 5.79002 37310 ft 436 kts 174°
2026-05-06 09:23 50.13769 5.79572 37526 ft 436 kts 174°
2026-05-06 09:24 50.11776 5.79947 37670 ft 436 kts 174°
2026-05-06 09:24 50.08771 5.80656 37868 ft 437 kts 170°
2026-05-06 09:24 50.05803 5.81731 38051 ft 438 kts 166°
2026-05-06 09:24 50.02901 5.83155 38222 ft 439 kts 162°
2026-05-06 09:25 50.00014 5.84679 38391 ft 439 kts 163°
2026-05-06 09:25 49.97084 5.86217 38529 ft 439 kts 163°
2026-05-06 09:25 49.94224 5.87706 38652 ft 439 kts 163°
2026-05-06 09:25 49.91330 5.89204 38769 ft 439 kts 163°
2026-05-06 09:26 49.88418 5.90705 38789 ft 439 kts 163°
2026-05-06 09:26 49.82629 5.93680 38780 ft 438 kts 163°
2026-05-06 09:27 49.76859 5.96637 38777 ft 438 kts 163°
2026-05-06 09:27 49.71105 5.99578 38777 ft 438 kts 163°
2026-05-06 09:28 49.65283 6.02548 38774 ft 437 kts 163°
2026-05-06 09:28 49.59550 6.05464 38773 ft 437 kts 163°
2026-05-06 09:29 49.53785 6.08391 38769 ft 436 kts 163°
2026-05-06 09:29 49.48188 6.12074 38767 ft 438 kts 154°
2026-05-06 09:30 49.43037 6.17132 38760 ft 441 kts 144°
2026-05-06 09:30 49.38273 6.23069 38765 ft 442 kts 143°
2026-05-06 09:31 49.33492 6.29016 38766 ft 442 kts 143°
2026-05-06 09:31 49.28705 6.34920 38774 ft 442 kts 143°
2026-05-06 09:32 49.23895 6.40832 38783 ft 443 kts 143°
2026-05-06 09:32 49.19082 6.46731 38793 ft 444 kts 144°
2026-05-06 09:33 49.14256 6.52633 38799 ft 444 kts 144°
2026-05-06 09:33 49.09426 6.58523 38802 ft 445 kts 144°
2026-05-06 09:34 49.04620 6.64371 38808 ft 445 kts 144°
2026-05-06 09:34 48.99344 6.69125 38805 ft 439 kts 161°
2026-05-06 09:35 48.93463 6.71260 38804 ft 433 kts 178°
2026-05-06 09:35 48.87460 6.71188 38801 ft 431 kts 183°
2026-05-06 09:36 48.81457 6.70946 38806 ft 432 kts 183°
2026-05-06 09:36 48.75451 6.70715 38808 ft 432 kts 183°
2026-05-06 09:37 48.69442 6.70482 38804 ft 432 kts 183°
2026-05-06 09:37 48.63435 6.70249 38806 ft 432 kts 183°
2026-05-06 09:38 48.57416 6.70015 38802 ft 432 kts 183°
2026-05-06 09:38 48.51414 6.69783 38808 ft 432 kts 184°
2026-05-06 09:39 48.45403 6.69551 38812 ft 432 kts 184°
2026-05-06 09:39 48.39396 6.69320 38814 ft 431 kts 184°
2026-05-06 09:40 48.33401 6.69089 38815 ft 431 kts 184°
2026-05-06 09:40 48.24447 6.68745 38820 ft 430 kts 184°
2026-05-06 09:41 48.18466 6.68516 38831 ft 430 kts 184°
2026-05-06 09:41 48.12485 6.68287 38825 ft 429 kts 184°
2026-05-06 09:42 48.06523 6.68060 38824 ft 429 kts 184°
2026-05-06 09:42 48.00558 6.67834 38833 ft 428 kts 184°
2026-05-06 09:43 47.94606 6.67608 38823 ft 427 kts 184°
2026-05-06 09:43 47.88686 6.67384 38834 ft 426 kts 184°
2026-05-06 09:44 47.82751 6.67159 38834 ft 425 kts 184°
2026-05-06 09:44 47.76879 6.66938 38834 ft 424 kts 183°
2026-05-06 09:45 47.70992 6.66717 38835 ft 423 kts 183°
2026-05-06 09:45 47.65113 6.66497 38830 ft 422 kts 183°
2026-05-06 09:46 47.59248 6.66277 38826 ft 421 kts 183°
2026-05-06 09:46 47.53394 6.66058 38825 ft 420 kts 183°
2026-05-06 09:47 47.47557 6.65841 38819 ft 420 kts 183°
2026-05-06 09:47 47.41801 6.64720 38810 ft 417 kts 197°
2026-05-06 09:48 47.36562 6.61290 38817 ft 416 kts 212°
2026-05-06 09:48 47.31997 6.55941 38834 ft 422 kts 220°
2026-05-06 09:49 47.27533 6.50315 38841 ft 422 kts 219°
2026-05-06 09:49 47.23060 6.44719 38846 ft 422 kts 219°
2026-05-06 09:50 47.18578 6.39128 38840 ft 423 kts 219°
2026-05-06 09:50 47.14082 6.33531 38840 ft 424 kts 219°
2026-05-06 09:51 47.09470 6.28108 38857 ft 424 kts 212°
2026-05-06 09:51 47.04158 6.24385 38854 ft 425 kts 198°
2026-05-06 09:52 46.98341 6.22821 38850 ft 427 kts 186°
2026-05-06 09:52 46.92414 6.22060 38857 ft 428 kts 187°
2026-05-06 09:53 46.86480 6.21268 38863 ft 428 kts 187°
2026-05-06 09:53 46.80573 6.20481 38871 ft 429 kts 187°
2026-05-06 09:54 46.74621 6.19691 38865 ft 429 kts 187°
2026-05-06 09:54 46.68699 6.18908 38867 ft 427 kts 187°
2026-05-06 09:55 46.62778 6.18127 38869 ft 427 kts 187°
2026-05-06 09:55 46.56864 6.17348 38877 ft 426 kts 187°
2026-05-06 09:56 46.50957 6.16571 38886 ft 426 kts 187°
2026-05-06 09:56 46.45096 6.15802 38894 ft 425 kts 187°
2026-05-06 09:57 46.39172 6.15026 38902 ft 424 kts 187°
2026-05-06 09:57 46.33294 6.14258 38909 ft 423 kts 187°
2026-05-06 09:58 46.27436 6.13494 38910 ft 423 kts 187°
2026-05-06 09:58 46.21612 6.12409 38909 ft 421 kts 191°
2026-05-06 09:59 46.15858 6.11110 38903 ft 420 kts 191°
2026-05-06 09:59 46.10073 6.09819 38899 ft 420 kts 191°
2026-05-06 10:00 46.04296 6.08538 38901 ft 420 kts 191°
2026-05-06 10:00 45.98517 6.07260 38914 ft 420 kts 191°
2026-05-06 10:01 45.92732 6.05982 38908 ft 421 kts 191°
2026-05-06 10:01 45.86928 6.04703 38908 ft 422 kts 191°
2026-05-06 10:02 45.81125 6.03423 38911 ft 422 kts 191°
2026-05-06 10:02 45.75306 6.02137 38910 ft 423 kts 191°
2026-05-06 10:03 45.69530 6.00864 38903 ft 422 kts 191°
2026-05-06 10:03 45.63727 5.99587 38903 ft 422 kts 191°
2026-05-06 10:04 45.57922 5.98313 38905 ft 423 kts 191°
2026-05-06 10:04 45.52110 5.97039 38914 ft 422 kts 191°
2026-05-06 10:05 45.46325 5.95667 38911 ft 420 kts 195°
2026-05-06 10:05 45.40626 5.93867 38905 ft 419 kts 195°
2026-05-06 10:06 45.34925 5.92078 38914 ft 419 kts 194°
2026-05-06 10:06 45.29217 5.90298 38917 ft 421 kts 195°
2026-05-06 10:07 45.23500 5.88521 38926 ft 420 kts 194°
2026-05-06 10:07 45.17789 5.86749 38924 ft 420 kts 195°
2026-05-06 10:08 45.12077 5.84980 38920 ft 420 kts 195°
2026-05-06 10:08 45.06382 5.83221 38907 ft 418 kts 195°
2026-05-06 10:09 45.00701 5.81467 38902 ft 418 kts 195°
2026-05-06 10:09 44.95060 5.79731 38904 ft 417 kts 195°
2026-05-06 10:10 44.89387 5.77989 38904 ft 417 kts 195°
2026-05-06 10:10 44.83708 5.76248 38905 ft 418 kts 195°
2026-05-06 10:11 44.78015 5.74507 38905 ft 418 kts 195°
2026-05-06 10:11 44.72345 5.72782 38902 ft 418 kts 195°
2026-05-06 10:12 44.66649 5.71044 38909 ft 418 kts 195°
2026-05-06 10:12 44.61929 5.69606 38905 ft 417 kts 195°
2026-05-06 10:13 44.56260 5.67885 38907 ft 416 kts 195°
2026-05-06 10:13 44.50590 5.66166 38907 ft 416 kts 195°
2026-05-06 10:14 44.44912 5.64449 38913 ft 417 kts 195°
2026-05-06 10:14 44.39250 5.62694 38909 ft 415 kts 198°
2026-05-06 10:15 44.33798 5.60104 38906 ft 413 kts 204°
2026-05-06 10:15 44.28494 5.57160 38905 ft 413 kts 204°
2026-05-06 10:16 44.23146 5.54223 38915 ft 413 kts 204°
2026-05-06 10:16 44.17802 5.51302 38918 ft 412 kts 204°
2026-05-06 10:17 44.12453 5.48387 38920 ft 412 kts 204°
2026-05-06 10:17 44.07106 5.45478 38927 ft 412 kts 204°
2026-05-06 10:18 44.01765 5.42578 38932 ft 412 kts 204°
2026-05-06 10:18 43.96434 5.39689 38921 ft 410 kts 204°
2026-05-06 10:19 43.91122 5.36814 38928 ft 410 kts 204°
2026-05-06 10:19 43.85804 5.33939 38928 ft 410 kts 204°
2026-05-06 10:20 43.80491 5.31074 38927 ft 409 kts 204°
2026-05-06 10:20 43.75214 5.28233 38933 ft 410 kts 204°
2026-05-06 10:21 43.69896 5.25376 38939 ft 410 kts 204°
2026-05-06 10:21 43.64571 5.22521 38942 ft 411 kts 204°
2026-05-06 10:22 43.59235 5.19665 38944 ft 411 kts 204°
2026-05-06 10:22 43.53897 5.16813 38945 ft 411 kts 204°
2026-05-06 10:23 43.48562 5.13970 38934 ft 410 kts 204°
2026-05-06 10:23 43.43272 5.11154 38936 ft 410 kts 204°
2026-05-06 10:24 43.38094 5.07924 38937 ft 407 kts 211°
2026-05-06 10:24 43.33333 5.03738 38933 ft 406 kts 217°
2026-05-06 10:25 43.28697 4.99330 38938 ft 405 kts 216°
2026-05-06 10:25 43.24047 4.94949 38940 ft 405 kts 216°
2026-05-06 10:26 43.19398 4.90585 38939 ft 405 kts 216°
2026-05-06 10:26 43.14746 4.86228 38938 ft 405 kts 217°
2026-05-06 10:27 43.10099 4.81883 38939 ft 404 kts 217°
2026-05-06 10:27 43.05464 4.77620 38943 ft 405 kts 214°
2026-05-06 10:28 43.00552 4.73836 38944 ft 405 kts 212°
2026-05-06 10:28 42.95619 4.70108 38949 ft 405 kts 212°
2026-05-06 10:29 42.90694 4.66381 38957 ft 405 kts 212°
2026-05-06 10:29 42.85767 4.62658 38959 ft 404 kts 212°
2026-05-06 10:30 42.80846 4.58946 38957 ft 404 kts 212°
2026-05-06 10:30 42.75923 4.55240 38963 ft 404 kts 212°
2026-05-06 10:31 42.71012 4.51549 38964 ft 403 kts 212°
2026-05-06 10:31 42.66128 4.47885 38959 ft 403 kts 212°
2026-05-06 10:32 42.61216 4.44208 38968 ft 402 kts 212°
2026-05-06 10:32 42.56311 4.40542 38966 ft 402 kts 212°
2026-05-06 10:33 42.51412 4.36887 38962 ft 402 kts 212°
2026-05-06 10:33 42.46510 4.33236 38969 ft 401 kts 212°
2026-05-06 10:34 42.41617 4.29599 38974 ft 401 kts 212°
2026-05-06 10:34 42.36759 4.25994 38973 ft 400 kts 212°
2026-05-06 10:35 42.31876 4.22378 38973 ft 400 kts 212°
2026-05-06 10:35 42.26989 4.18764 38974 ft 400 kts 212°
2026-05-06 10:36 42.22112 4.15165 38972 ft 399 kts 212°
2026-05-06 10:36 42.17237 4.11572 38975 ft 399 kts 212°
2026-05-06 10:37 42.12358 4.07987 38975 ft 399 kts 212°
2026-05-06 10:37 42.07490 4.04417 38974 ft 398 kts 212°
2026-05-06 10:38 42.02618 4.00850 38974 ft 398 kts 212°
2026-05-06 10:38 41.97779 3.97313 38974 ft 398 kts 212°
2026-05-06 10:39 41.92704 3.94245 38973 ft 402 kts 204°
2026-05-06 10:39 41.87304 3.92183 38974 ft 407 kts 197°
2026-05-06 10:40 41.81703 3.90890 38975 ft 408 kts 195°
2026-05-06 10:40 41.76099 3.89609 38978 ft 408 kts 195°
2026-05-06 10:41 41.70506 3.88319 38980 ft 408 kts 195°
2026-05-06 10:41 41.64916 3.87031 38977 ft 408 kts 195°
2026-05-06 10:42 41.59322 3.85745 38966 ft 408 kts 195°
2026-05-06 10:42 41.56522 3.85102 38783 ft 407 kts 195°
2026-05-06 10:42 41.53737 3.84464 38530 ft 404 kts 195°
2026-05-06 10:43 41.50969 3.83832 38247 ft 402 kts 196°
2026-05-06 10:43 41.48214 3.83201 37962 ft 402 kts 196°
2026-05-06 10:43 41.45453 3.82568 37682 ft 402 kts 196°
2026-05-06 10:44 41.39985 3.81319 37139 ft 400 kts 196°
2026-05-06 10:44 41.37243 3.80694 36867 ft 399 kts 196°
2026-05-06 10:44 41.34506 3.80069 36600 ft 399 kts 196°
2026-05-06 10:44 41.31776 3.79447 36337 ft 398 kts 196°
2026-05-06 10:45 41.29047 3.78826 36081 ft 398 kts 197°
2026-05-06 10:45 41.26317 3.78205 35829 ft 397 kts 197°
2026-05-06 10:45 41.23593 3.77586 35575 ft 397 kts 197°
2026-05-06 10:45 41.20870 3.76967 35329 ft 397 kts 197°
2026-05-06 10:46 41.18150 3.76350 35078 ft 396 kts 197°
2026-05-06 10:46 41.15467 3.75597 34826 ft 392 kts 201°
2026-05-06 10:46 41.12887 3.74496 34590 ft 387 kts 207°
2026-05-06 10:46 41.10384 3.73188 34343 ft 386 kts 207°
2026-05-06 10:47 41.07891 3.71889 34108 ft 386 kts 207°
2026-05-06 10:47 41.05388 3.70592 33848 ft 385 kts 207°
2026-05-06 10:47 41.02893 3.69305 33575 ft 386 kts 207°
2026-05-06 10:47 41.00373 3.68007 33293 ft 387 kts 207°
2026-05-06 10:48 40.97856 3.66712 33023 ft 388 kts 207°
2026-05-06 10:48 40.95335 3.65418 32753 ft 389 kts 207°
2026-05-06 10:48 40.92806 3.64119 32483 ft 390 kts 207°
2026-05-06 10:48 40.90273 3.62820 32226 ft 391 kts 207°
2026-05-06 10:49 40.87738 3.61521 31962 ft 391 kts 207°
2026-05-06 10:49 40.85194 3.60219 31645 ft 393 kts 207°
2026-05-06 10:49 40.82667 3.58925 30920 ft 397 kts 207°
2026-05-06 10:49 40.80079 3.57599 30031 ft 401 kts 207°
2026-05-06 10:50 40.77460 3.56264 29393 ft 395 kts 206°
2026-05-06 10:50 40.74933 3.54980 29031 ft 383 kts 207°
2026-05-06 10:50 40.72471 3.53729 28515 ft 376 kts 207°
2026-05-06 10:50 40.70051 3.52496 27986 ft 370 kts 207°
2026-05-06 10:51 40.67704 3.51298 27465 ft 364 kts 207°
2026-05-06 10:51 40.65355 3.50101 26951 ft 359 kts 206°
2026-05-06 10:51 40.63042 3.48923 26439 ft 354 kts 206°
2026-05-06 10:51 40.60756 3.47759 25941 ft 350 kts 206°
2026-05-06 10:52 40.58498 3.46611 25442 ft 346 kts 206°
2026-05-06 10:52 40.56264 3.45476 24946 ft 344 kts 206°
2026-05-06 10:52 40.53951 3.44292 24473 ft 369 kts 206°
2026-05-06 10:52 40.51531 3.43058 24227 ft 374 kts 206°
2026-05-06 10:53 40.49096 3.41826 23682 ft 377 kts 205°
2026-05-06 10:53 40.46600 3.40616 22646 ft 388 kts 202°
2026-05-06 10:53 40.43965 3.39793 21973 ft 389 kts 194°
2026-05-06 10:53 40.41288 3.39457 21593 ft 383 kts 187°
2026-05-06 10:54 40.38638 3.39541 21114 ft 378 kts 184°
2026-05-06 10:54 40.36033 3.39701 20586 ft 372 kts 184°
2026-05-06 10:54 40.33464 3.39851 20057 ft 367 kts 184°
2026-05-06 10:54 40.30926 3.39995 19529 ft 363 kts 184°
2026-05-06 10:55 40.28418 3.40137 19006 ft 359 kts 184°
2026-05-06 10:55 40.25939 3.40276 18499 ft 355 kts 184°
2026-05-06 10:55 40.23473 3.40415 17942 ft 352 kts 183°
2026-05-06 10:55 40.21076 3.40551 17449 ft 347 kts 183°
2026-05-06 10:56 40.18675 3.40687 16952 ft 343 kts 183°
2026-05-06 10:56 40.16309 3.40820 16458 ft 339 kts 183°
2026-05-06 10:56 40.13968 3.40951 15972 ft 335 kts 182°
2026-05-06 10:56 40.11646 3.41082 15502 ft 331 kts 182°
2026-05-06 10:57 40.09388 3.41211 15355 ft 318 kts 182°
2026-05-06 10:57 40.07221 3.41339 15212 ft 305 kts 182°
2026-05-06 10:57 40.05120 3.41459 14913 ft 299 kts 182°
2026-05-06 10:57 40.03066 3.41575 14673 ft 292 kts 182°
2026-05-06 10:58 40.01031 3.41686 14432 ft 294 kts 182°
2026-05-06 10:58 39.98988 3.41797 14191 ft 294 kts 182°
2026-05-06 10:58 39.96976 3.41908 13915 ft 291 kts 182°
2026-05-06 10:58 39.94958 3.42020 13527 ft 290 kts 182°
2026-05-06 10:59 39.92950 3.42133 13111 ft 288 kts 182°
2026-05-06 10:59 39.90962 3.42244 12724 ft 285 kts 182°
2026-05-06 10:59 39.88979 3.42355 12286 ft 284 kts 181°
2026-05-06 10:59 39.87012 3.42464 11887 ft 282 kts 181°
2026-05-06 11:00 39.85056 3.42573 11487 ft 280 kts 181°
2026-05-06 11:00 39.83114 3.42681 11098 ft 278 kts 181°
2026-05-06 11:00 39.81833 3.42752 10836 ft 277 kts 181°
2026-05-06 11:00 39.79295 3.42894 10354 ft 274 kts 181°
2026-05-06 11:01 39.77395 3.42999 9976 ft 272 kts 180°
2026-05-06 11:01 39.75506 3.43104 9569 ft 271 kts 180°
2026-05-06 11:01 39.74240 3.43165 9305 ft 270 kts 183°
2026-05-06 11:01 39.72433 3.42676 8881 ft 266 kts 206°
2026-05-06 11:02 39.70974 3.41243 8491 ft 265 kts 229°
2026-05-06 11:02 39.70108 3.39155 8065 ft 267 kts 253°
2026-05-06 11:02 39.69965 3.36760 7655 ft 270 kts 270°
2026-05-06 11:02 39.70059 3.34323 7294 ft 270 kts 270°
2026-05-06 11:03 39.70148 3.31891 6963 ft 269 kts 270°
2026-05-06 11:03 39.70231 3.29471 6656 ft 268 kts 270°
2026-05-06 11:03 39.70308 3.27058 6305 ft 267 kts 270°
2026-05-06 11:03 39.70382 3.24660 5958 ft 265 kts 270°
2026-05-06 11:04 39.70454 3.22290 5475 ft 262 kts 270°
2026-05-06 11:04 39.70526 3.19923 4936 ft 262 kts 270°
2026-05-06 11:04 39.70599 3.17596 4607 ft 251 kts 270°
2026-05-06 11:04 39.70665 3.15405 4452 ft 235 kts 270°
2026-05-06 11:05 39.70727 3.13394 4207 ft 226 kts 269°
2026-05-06 11:05 39.70739 3.12990 4116 ft 226 kts 269°
2026-05-06 11:05 39.70788 3.11322 3745 ft 227 kts 269°
2026-05-06 11:05 39.70722 3.09290 3318 ft 223 kts 255°
2026-05-06 11:06 39.70207 3.07416 2951 ft 221 kts 242°
2026-05-06 11:06 39.69445 3.05677 2648 ft 222 kts 236°
2026-05-06 11:06 39.68905 3.04567 2528 ft 217 kts 237°
2026-05-06 11:06 39.68248 3.03168 2493 ft 204 kts 237°
2026-05-06 11:07 39.67535 3.01650 2474 ft 190 kts 237°
2026-05-06 11:07 39.66871 3.00237 2484 ft 179 kts 237°
2026-05-06 11:07 39.66209 2.98828 2486 ft 187 kts 237°
2026-05-06 11:07 39.65518 2.97362 2479 ft 190 kts 237°
2026-05-06 11:08 39.64835 2.95906 2484 ft 187 kts 237°
2026-05-06 11:08 39.64159 2.94467 2478 ft 187 kts 237°
2026-05-06 11:08 39.63484 2.93035 2487 ft 186 kts 238°
2026-05-06 11:08 39.62815 2.91612 2477 ft 188 kts 237°
2026-05-06 11:09 39.62135 2.90161 2478 ft 185 kts 237°
2026-05-06 11:09 39.61469 2.88749 2356 ft 181 kts 236°
2026-05-06 11:09 39.60836 2.87404 2044 ft 168 kts 236°
2026-05-06 11:09 39.60254 2.86167 1813 ft 154 kts 237°
2026-05-06 11:10 39.59717 2.85026 1609 ft 144 kts 236°
2026-05-06 11:10 39.59190 2.83907 1427 ft 152 kts 237°
2026-05-06 11:10 39.58621 2.82691 1197 ft 155 kts 236°
2026-05-06 11:10 39.58089 2.81566 1011 ft 140 kts 237°
2026-05-06 11:11 39.57599 2.80526 813 ft 134 kts 236°
2026-05-06 11:11 39.57119 2.79517 640 ft 130 kts 238°
2026-05-06 11:11 39.56660 2.78537 475 ft 127 kts 238°
2026-05-06 11:11 39.56200 2.77570 335 ft 125 kts 237°
2026-05-06 11:12 39.55747 2.76606 172 ft 125 kts 238°
2026-05-06 11:12 39.55304 2.75657 44 ft 122 kts 237°
2026-05-06 11:12 39.54910 2.74834 44 ft 102 kts 237°
2026-05-06 11:12 39.54736 2.74483 44 ft 123 kts 237°
2026-05-06 11:13 39.54236 2.73455 578 ft 134 kts 236°
2026-05-06 11:13 39.53732 2.72444 1442 ft 133 kts 236°
2026-05-06 11:13 39.53109 2.71534 2067 ft 145 kts 208°
2026-05-06 11:13 39.52075 2.71264 2406 ft 168 kts 174°
2026-05-06 11:14 39.50900 2.71930 2476 ft 200 kts 152°
2026-05-06 11:14 39.49640 2.72886 2466 ft 216 kts 152°
2026-05-06 11:14 39.48337 2.73875 2477 ft 217 kts 152°
2026-05-06 11:14 39.47040 2.74872 2477 ft 216 kts 152°
2026-05-06 11:15 39.45769 2.75881 2468 ft 216 kts 144°
2026-05-06 11:15 39.44864 2.77467 2471 ft 225 kts 111°
2026-05-06 11:15 39.44771 2.79469 2475 ft 229 kts 77°
2026-05-06 11:15 39.45442 2.81345 2469 ft 232 kts 59°
2026-05-06 11:16 39.46282 2.83114 2479 ft 229 kts 59°
2026-05-06 11:16 39.47130 2.84878 2474 ft 231 kts 59°
2026-05-06 11:16 39.47983 2.86641 2471 ft 231 kts 58°
2026-05-06 11:16 39.48830 2.88394 2472 ft 230 kts 59°
2026-05-06 11:17 39.49689 2.90149 2477 ft 232 kts 59°
2026-05-06 11:17 39.50555 2.91916 2476 ft 232 kts 59°
2026-05-06 11:17 39.51415 2.93684 2473 ft 233 kts 58°
2026-05-06 11:17 39.52279 2.95475 2472 ft 233 kts 59°
2026-05-06 11:18 39.53118 2.97213 2475 ft 230 kts 59°
2026-05-06 11:18 39.53974 2.98983 2480 ft 232 kts 59°
2026-05-06 11:18 39.54840 3.00781 2480 ft 231 kts 59°
2026-05-06 11:18 39.55685 3.02532 2483 ft 232 kts 59°
2026-05-06 11:19 39.56543 3.04301 2486 ft 230 kts 59°
2026-05-06 11:19 39.57661 3.05750 2498 ft 230 kts 28°
2026-05-06 11:19 39.59206 3.06227 2486 ft 231 kts 354°
2026-05-06 11:19 39.60720 3.05641 2494 ft 228 kts 333°
2026-05-06 11:20 39.62147 3.04763 2480 ft 226 kts 329°
2026-05-06 11:20 39.63275 3.03440 2486 ft 219 kts 296°
2026-05-06 11:20 39.63783 3.01596 2483 ft 219 kts 282°
2026-05-06 11:20 39.64173 2.99696 2472 ft 216 kts 282°
2026-05-06 11:21 39.64554 2.97821 2485 ft 217 kts 279°
2026-05-06 11:21 39.64554 2.95886 2490 ft 214 kts 253°
2026-05-06 11:21 39.63999 2.94094 2483 ft 214 kts 239°
2026-05-06 11:21 39.63220 2.92455 2474 ft 212 kts 236°
2026-05-06 11:22 39.62454 2.90834 2474 ft 209 kts 237°
2026-05-06 11:22 39.61680 2.89201 2391 ft 216 kts 237°
2026-05-06 11:22 39.60888 2.87518 2056 ft 220 kts 237°
2026-05-06 11:22 39.60095 2.85831 1747 ft 215 kts 237°
2026-05-06 11:23 39.59337 2.84223 1463 ft 203 kts 238°
2026-05-06 11:23 39.58625 2.82709 1180 ft 189 kts 237°
2026-05-06 11:23 39.57979 2.81338 984 ft 168 kts 237°
2026-05-06 11:23 39.57406 2.80121 763 ft 151 kts 238°
2026-05-06 11:24 39.56878 2.79001 547 ft 137 kts 238°
2026-05-06 11:24 39.56408 2.77996 359 ft 129 kts 236°
2026-05-06 11:24 39.55942 2.77016 225 ft 133 kts 238°
2026-05-06 11:24 39.55463 2.75994 59 ft 131 kts 238°
2026-05-06 11:25 39.55026 2.75080 38 ft 102 kts 239°
2026-05-06 11:25 39.54764 2.74521 38 ft 44 kts 238°
2026-05-06 11:25 39.54668 2.74318 37 ft 23 kts 238°
2026-05-06 11:25 39.54585 2.74140 38 ft 23 kts 243°
2026-05-06 11:26 39.54550 2.73943 38 ft 23 kts 266°
2026-05-06 11:26 39.54550 2.73773 38 ft 6 kts 271°
2026-05-06 11:26 39.54550 2.73768 38 ft 0 kts 271°
2026-05-06 11:28 39.54550 2.73767 38 ft 1 kts 271°
2026-05-06 11:28 39.54559 2.73746 38 ft 4 kts 312°
2026-05-06 11:28 39.54605 2.73749 37 ft 10 kts 28°
2026-05-06 11:29 39.54661 2.73856 38 ft 18 kts 59°
2026-05-06 11:29 39.54715 2.73957 38 ft 8 kts 35°
2026-05-06 11:29 39.54773 2.73940 38 ft 11 kts 352°
2026-05-06 11:29 39.54832 2.73995 38 ft 12 kts 10°
2026-05-06 11:30 39.54917 2.73946 37 ft 16 kts 328°
2026-05-06 11:30 39.55026 2.73859 38 ft 21 kts 329°
2026-05-06 11:30 39.55158 2.73759 38 ft 20 kts 331°
2026-05-06 11:30 39.55168 2.73672 38 ft 9 kts 236°
2026-05-06 11:31 39.55130 2.73592 37 ft 12 kts 238°
2026-05-06 11:31 39.55119 2.73570 38 ft 2 kts 233°
2026-05-06 11:31 39.55104 2.73569 38 ft 3 kts 170°
2026-05-06 11:31 39.55075 2.73576 38 ft 4 kts 165°
2026-05-06 11:32 39.55068 2.73579 37 ft 1 kts 165°
2026-05-06 11:32 39.55065 2.73580 35 ft 0 kts 164°